AMOS-4 (39237 NORAD) Tracking and Keplerian Element Data

This shows tracking and keplerian element data for the satellite.

Feedback or suggestion? Click here.




ElementValue
Catalog39237
NameAMOS-4
Epoch Orbit4516
Epoch Day354.13617892
Epoch Year2025
RAAN90.5185
Inclination0.0375
Eccentricity0.0002927
Argument of Perigee199.4927
Mean Anonmoly272.9917
Mean Motion1.00272769
Decay Rate3.1E-07
L11 39237U 13045A 25354.13617892 .00000031 00000+0 00000+0 0 9995
L22 39237 0.0375 90.5185 0002927 199.4927 272.9917 1.00272769 45167



Live tracking and technical data element details for AMOS-4 (NORAD 39237). AMOS-4 can be tracked NOW for your location showing map with azimuth and elevation plus other details from your city location.







IsCatalogInMostPopularTable: catalog: 39237, numindb: 499
Update: records affected: 1



GetName: 39237 AMOS-4

Hit Count: updated at: Mon, 11 May 2026 11:40:49 GMT